Location: Aalen
(48.8330°N, 10.1000°E)
Time: 19:28:23
(UTC+02:00)

S-56A Canister/Altair - Pass Details

Date: 05 August 2021
Orbit: 632 x 2500 km, 38.9° (Epoch: 19 September)

Event Time Altitude Azimuth Distance (km) Brightness Sun altitude
Rises 21:08:14 0° 281° (W) 6,120 13.8 -3.2°
Reaches altitude 10° 21:13:06 10° 271° (W) 5,164 12.8 -3.9°
Maximum altitude 21:24:18 27° 223° (SW) 3,824 11.2 -5.5°
Drops below altitude 10° 21:34:22 10° 173° (S) 4,583 11.1 -6.8°
Sets 21:38:24 0° 161° (SSE) 5,329 11.3 -7.4°
